Weather in Kozino

Russia / Novosibirsk Oblast     55°30′55″N   75°29′31″E
temp.,
°C
wind,
m/s
gust,
m/s
humid.,
%
clouds,
%
prec.,
mm/h
press.,
hPa
HPBL,
m
3 march, wed
wed301:00−17ssw349790 0.1 1015100
04:00−19ssw349882 0.0 101453
07:00−20ssw349972 0.1 101548
10:00−19s489886 0.0 1014146
13:00−14s589488 0.1 1014322
16:00−13s61092100 0.0 1014429
19:00−14s71392100 0.0 1014468
22:00−12ssw61393100 0.3 1013523
4 march, thu
thu401:00−8ssw71393100 0.6 1012613
04:00−6ssw71394100 0.4 1010617
07:00−4ssw61295100 1.2 1009662
10:00−3ssw61295100 0.5 1008658
13:00−1ssw71295100 0.9 1007893
16:00−1ssw91493100 0.4 1006887
19:00−2ssw91592100 0.8 1004894
22:00−2ssw91788100 0.4 1003852
5 march, fri
fri501:00−2ssw91688100 0.4 1002756
04:00−2sw81395100 0.2 1002792
07:00−8wsw7139199 0.4 1004405
10:00−11sw7149190 0.0 1007362
13:00−9sw8148963 0.0 1009543
16:00−6sw81393100 0.8 10091142
19:00−7sw61390100 1.0 1011682
22:00−7sw7159099 0.1 1011522
6 march, sat
sat601:00−5sw61390100 0.1 1011538
04:00−3sw71395100 0.9 1010737
07:00−4sw81495100 1.9 1008795
10:00−4sw81593100 1.1 1007826
13:00−3sw91493100 1.6 1006907
16:00−1sw101689100 0.3 10051094
19:000wsw111784100 0.6 10051224
22:00−2w81486100 0.2 1008857
7 march, sun
sun701:00−6sw5129095 0.2 1011286
04:00−8sw4894100 0.0 1010181
07:00−7s3496100 0.1 100999
10:00−2s71296100 1.1 1006741
13:000sw91494100 1.9 1004959
16:000sw91391100 0.3 1004970
19:00−1sw81493100 0.3 1004905
22:00−1w81295100 0.3 1007670